Temp
-8 -7 -8 -8 -8 -8 -8 -8 -8 -8 -8 -8 -9 -9 -9 -9 -9 -9 -10 -10 -10 -10 -10 -10 -10 -10 -10 -11 -11 -11 -11 -11 -11 -11 -11 -11 -11 -11 -10 -10 -10 -10 -10
-8 -8 -7 -8 -8 -8 -8 -8 -8 -8 -8 -8 -8 -9 -9 -9 -9 -9 -10 -10 -10 -10 -10 -10 -10 -10 -10 -10 -10 -11 -11 -11 -11 -10 -10 -11 -11 -11 -11 -11 -11 -11 -11
-8 -8 -7 -8 -8 -8 -8 -8 -8 -8 -8 -8 -8 -8 -9 -9 -9 -9 -9 -10 -9 -10 -10 -10 -10 -9 -9 -10 -10 -10 -10 -10 -10 -10 -10 -10 -11 -11 -11 -11 -11 -11 -11
-8 -8 -8 -8 -8 -8 -8 -8 -8 -8 -8 -8 -8 -8 -9 -9 -10 -9 -9 -9 -9 -10 -10 -10 -10 -10 -9 -9 -9 -9 -9 -9 -10 -10 -10 -10 -10 -10 -10 -10 -10 -10 -10
-8 -8 -8 -8 -8 -8 -8 -8 -8 -8 -8 -9 -8 -9 -9 -9 -10 -10 -9 -9 -9 -10 -10 -10 -10 -10 -9 -9 -9 -9 -9 -9 -9 -9 -9 -9 -9 -9 -9 -10 -10 -10 -10
-8 -8 -8 -8 -8 -8 -8 -8 -8 -8 -8 -8 -9 -8 -9 -9 -9 -9 -9 -9 -9 -9 -10 -10 -10 -9 -9 -9 -9 -9 -9 -9 -9 -9 -9 -9 -9 -9 -9 -9 -9 -9 -9
-8 -8 -8 -8 -8 -8 -8 -8 -8 -7 -8 -8 -9 -9 -9 -9 -9 -9 -9 -9 -9 -9 -10 -10 -10 -9 -9 -9 -9 -9 -9 -9 -9 -9 -9 -9 -9 -9 -9 -9 -9 -9 -9
-8 -8 -8 -8 -8 -8 -8 -8 -8 -8 -7 -8 -8 -9 -9 -9 -9 -10 -9 -9 -9 -9 -9 -10 -10 -9 -9 -9 -9 -9 -9 -9 -9 -9 -9 -9 -9 -9 -9 -9 -9 -9 -9
-8 -8 -8 -8 -8 -8 -8 -8 -8 -8 -8 -8 -8 -9 -9 -9 -9 -10 -10 -9 -9 -9 -9 -9 -9 -9 -9 -9 -9 -9 -9 -9 -9 -9 -9 -9 -9 -9 -9 -9 -9 -9 -9
-8 -8 -8 -8 -8 -8 -8 -8 -8 -7 -8 -8 -8 -9 -9 -9 -9 -9 -10 -9 -9 -9 -9 -9 -9 -9 -9 -9 -9 -9 -9 -9 -9 -9 -9 -9 -9 -9 -9 -9 -10 -10 -10
-8 -8 -8 -8 -8 -8 -8 -8 -8 -7 -7 -8 -8 -8 -9 -9 -9 -9 -9 -9 -9 -9 -9 -9 -9 -9 -9 -9 -9 -9 -9 -9 -9 -9 -9 -9 -9 -9 -9 -9 -9 -10 -10
-8 -8 -8 -8 -8 -8 -8 -8 -8 -8 -8 -8 -8 -8 -8 -9 -9 -9 -9 -9 -9 -9 -9 -9 -9 -9 -9 -9 -9 -9 -9 -9 -9 -9 -9 -9 -9 -9 -10 -10 -10 -10 -10
-8 -8 -8 -8 -8 -8 -8 -8 -8 -8 -8 -8 -8 -8 -8 -9 -9 -9 -9 -9 -9 -9 -9 -9 -9 -8 -8 -9 -9 -9 -9 -9 -9 -9 -9 -9 -9 -10 -10 -10 -10 -10 -10
-8 -8 -8 -9 -9 -9 -9 -8 -8 -8 -8 -8 -8 -8 -8 -9 -9 -9 -9 -9 -10 -9 -9 -9 -9 -9 -9 -9 -9 -9 -9 -9 -9 -9 -9 -9 -10 -10 -10 -10 -10 -10 -10
-8 -8 -9 -9 -9 -8 -8 -8 -8 -8 -8 -8 -8 -8 -8 -9 -9 -9 -9 -9 -10 -10 -10 -9 -9 -9 -9 -9 -9 -9 -9 -9 -9 -9 -9 -9 -10 -10 -10 -10 -10 -10 -11
-8 -8 -8 -9 -9 -9 -9 -9 -9 -8 -8 -8 -9 -8 -8 -8 -9 -9 -9 -9 -9 -10 -10 -10 -10 -10 -10 -10 -10 -10 -10 -10 -10 -10 -10 -10 -10 -10 -10 -10 -11 -11 -11
-7 -7 -8 -8 -8 -9 -9 -9 -9 -9 -9 -9 -9 -9 -9 -8 -9 -9 -10 -10 -10 -10 -10 -10 -10 -10 -10 -10 -10 -10 -10 -10 -10 -10 -10 -10 -11 -11 -10 -10 -11 -11 -11
-7 -7 -7 -8 -9 -9 -9 -9 -9 -9 -9 -9 -9 -9 -9 -9 -9 -9 -10 -10 -10 -10 -10 -10 -10 -10 -10 -10 -11 -11 -11 -11 -11 -11 -11 -11 -11 -11 -11 -11 -11 -11 -12
-8 -8 -8 -7 -8 -9 -9 -9 -9 -9 -9 -9 -9 -9 -9 -9 -9 -9 -9 -10 -10 -10 -10 -11 -11 -11 -11 -11 -11 -11 -11 -11 -11 -11 -11 -11 -11 -11 -11 -11 -12 -12 -11
-7 -8 -8 -8 -8 -9 -9 -9 -9 -10 -10 -10 -10 -10 -9 -9 -10 -10 -10 -10 -10 -10 -11 -11 -11 -11 -11 -11 -11 -11 -11 -11 -11 -11 -11 -11 -11 -11 -11 -11 -11 -11 -12
-7 -7 -8 -8 -9 -9 -9 -10 -9 -10 -10 -10 -10 -10 -10 -10 -10 -10 -10 -10 -10 -10 -11 -11 -11 -11 -11 -11 -11 -11 -11 -11 -11 -11 -11 -11 -11 -11 -12 -12 -12 -12 -12
-8 -8 -8 -9 -9 -9 -10 -10 -10 -10 -10 -10 -10 -10 -10 -10 -10 -10 -10 -10 -10 -10 -11 -11 -11 -11 -11 -11 -11 -11 -11 -11 -11 -11 -12 -12 -12 -12 -12 -12 -12 -12 -12
-9 -9 -8 -9 -10 -9 -9 -10 -10 -10 -10 -10 -10 -10 -11 -10 -10 -10 -10 -10 -10 -10 -11 -11 -11 -12 -12 -12 -12 -11 -11 -11 -12 -12 -12 -12 -12 -12 -12 -12 -12 -12 -12
-10 -9 -9 -9 -10 -10 -9 -9 -10 -10 -10 -11 -11 -11 -11 -11 -11 -11 -11 -11 -11 -11 -11 -11 -11 -11 -12 -12 -12 -12 -12 -12 -12 -11 -12 -12 -13 -13 -13 -14 -14 -13 -13
-10 -10 -10 -9 -9 -10 -10 -10 -10 -10 -11 -11 -11 -11 -11 -11 -11 -11 -11 -11 -11 -11 -12 -12 -12 -12 -12 -12 -12 -12 -12 -12 -12 -11 -11 -12 -12 -13 -13 -13 -13 -13 -14
-10 -10 -10 -9 -9 -10 -10 -10 -10 -10 -11 -11 -11 -11 -11 -11 -11 -11 -11 -12 -12 -12 -12 -12 -12 -12 -12 -12 -12 -12 -13 -13 -13 -13 -12 -12 -11 -12 -12 -12 -13 -13 -12
Height
5899 5897 5895 5893 5891 5889 5887 5884 5881 5877 5875 5873 5872 5871 5870 5870 5870 5869 5868 5867 5866 5866 5864 5863 5862 5861 5861 5861 5861 5861 5861 5861 5860 5859 5858 5857 5857 5857 5857 5857 5857 5856 5856
5898 5897 5895 5893 5890 5889 5887 5884 5880 5878 5875 5874 5872 5871 5871 5871 5870 5870 5869 5868 5867 5866 5865 5864 5864 5862 5862 5861 5861 5861 5861 5861 5861 5860 5859 5858 5858 5858 5858 5858 5858 5858 5858
5898 5897 5894 5892 5891 5889 5887 5883 5880 5877 5875 5874 5872 5871 5872 5871 5870 5870 5869 5869 5868 5867 5865 5864 5864 5863 5862 5862 5862 5861 5862 5862 5861 5860 5860 5860 5859 5859 5859 5858 5858 5858 5858
5896 5895 5893 5892 5891 5889 5886 5883 5879 5877 5875 5874 5872 5872 5872 5871 5871 5870 5869 5869 5868 5868 5866 5865 5864 5864 5864 5863 5863 5862 5862 5862 5862 5862 5861 5861 5860 5860 5860 5859 5859 5859 5859
5893 5893 5892 5891 5890 5888 5886 5883 5879 5877 5875 5873 5872 5872 5871 5872 5871 5870 5869 5869 5868 5869 5868 5867 5866 5865 5865 5864 5863 5863 5862 5862 5862 5862 5862 5862 5862 5861 5861 5860 5859 5859 5859
5891 5891 5891 5890 5889 5887 5885 5882 5879 5876 5874 5873 5872 5872 5871 5871 5870 5870 5870 5870 5869 5869 5868 5867 5867 5867 5866 5866 5866 5865 5865 5865 5864 5864 5863 5862 5862 5863 5862 5861 5860 5860 5860
5889 5889 5889 5888 5887 5886 5884 5881 5878 5876 5873 5872 5871 5871 5872 5870 5869 5869 5869 5869 5868 5869 5868 5867 5867 5867 5867 5867 5866 5866 5866 5866 5866 5865 5864 5864 5863 5863 5863 5862 5861 5860 5859
5887 5887 5887 5887 5886 5885 5883 5880 5877 5874 5872 5871 5870 5870 5870 5870 5869 5868 5867 5868 5868 5868 5868 5867 5866 5866 5867 5868 5867 5867 5866 5866 5866 5866 5866 5865 5864 5863 5863 5861 5860 5860 5860
5884 5885 5885 5885 5885 5883 5881 5879 5876 5873 5871 5869 5869 5869 5869 5869 5868 5867 5867 5867 5867 5866 5867 5867 5866 5866 5866 5867 5867 5867 5867 5867 5866 5866 5865 5864 5864 5863 5863 5862 5861 5860 5859
5882 5883 5883 5882 5882 5881 5880 5877 5875 5872 5869 5868 5867 5867 5867 5867 5867 5866 5865 5865 5864 5864 5865 5866 5866 5866 5865 5865 5865 5865 5865 5865 5865 5864 5864 5864 5863 5862 5861 5860 5859 5859 5858
5879 5880 5880 5879 5879 5878 5877 5875 5873 5871 5868 5866 5865 5865 5865 5864 5865 5864 5863 5863 5863 5863 5863 5863 5864 5864 5864 5863 5863 5864 5864 5863 5863 5862 5861 5860 5860 5859 5858 5857 5856 5855 5854
5876 5876 5876 5875 5875 5874 5873 5873 5871 5869 5866 5864 5863 5863 5862 5862 5861 5862 5861 5861 5861 5860 5860 5859 5860 5861 5861 5861 5861 5860 5860 5861 5860 5860 5858 5857 5856 5855 5854 5853 5852 5851 5850
5872 5871 5871 5871 5871 5871 5870 5869 5868 5867 5864 5862 5860 5859 5859 5859 5858 5858 5857 5858 5857 5856 5857 5856 5857 5857 5858 5858 5857 5857 5856 5855 5855 5855 5854 5853 5852 5851 5850 5849 5847 5846 5845
5866 5867 5866 5867 5866 5866 5866 5866 5864 5864 5861 5859 5858 5856 5856 5856 5855 5854 5853 5853 5853 5853 5852 5853 5853 5853 5853 5853 5853 5852 5851 5849 5849 5848 5848 5847 5846 5845 5843 5842 5841 5840 5839
5860 5861 5862 5863 5863 5863 5862 5861 5860 5860 5858 5856 5855 5853 5852 5852 5851 5850 5849 5849 5849 5849 5849 5848 5849 5849 5849 5848 5847 5846 5845 5844 5844 5843 5842 5840 5839 5839 5837 5835 5835 5834 5832
5853 5857 5857 5857 5857 5858 5857 5856 5855 5854 5853 5852 5851 5849 5849 5848 5847 5846 5845 5845 5845 5844 5845 5845 5844 5844 5843 5842 5842 5841 5841 5840 5838 5836 5834 5833 5832 5830 5829 5828 5827 5825 5823
5847 5849 5853 5852 5851 5852 5851 5851 5849 5848 5847 5847 5847 5846 5844 5844 5843 5841 5840 5840 5840 5840 5840 5840 5840 5839 5837 5836 5835 5834 5834 5833 5831 5830 5829 5827 5825 5824 5822 5821 5820 5817 5815
5832 5842 5842 5843 5844 5845 5845 5845 5844 5843 5843 5842 5842 5841 5839 5838 5838 5837 5836 5836 5835 5835 5835 5834 5834 5833 5832 5831 5829 5827 5827 5827 5825 5823 5822 5821 5819 5817 5814 5811 5808 5807 5805
5828 5829 5836 5836 5836 5836 5838 5837 5838 5837 5836 5836 5835 5835 5834 5832 5831 5831 5831 5830 5829 5829 5828 5828 5827 5825 5824 5823 5822 5821 5821 5820 5818 5816 5813 5812 5811 5809 5807 5804 5801 5798 5795
5819 5822 5825 5828 5830 5830 5831 5831 5831 5831 5829 5829 5830 5829 5828 5828 5827 5826 5825 5824 5822 5821 5821 5819 5818 5817 5816 5815 5814 5814 5812 5810 5807 5806 5804 5802 5801 5799 5796 5793 5789 5785 5781
5813 5816 5816 5819 5822 5822 5823 5823 5823 5823 5822 5822 5822 5822 5822 5821 5821 5819 5818 5817 5814 5813 5811 5810 5808 5807 5805 5805 5804 5803 5802 5800 5798 5796 5794 5792 5789 5785 5782 5779 5775 5771 5769
5806 5809 5808 5809 5812 5814 5815 5815 5813 5814 5813 5813 5814 5813 5812 5813 5813 5811 5809 5808 5806 5804 5803 5801 5800 5797 5795 5793 5792 5791 5790 5788 5786 5785 5783 5781 5778 5774 5770 5766 5763 5760 5756
5794 5799 5799 5800 5801 5805 5807 5807 5805 5805 5805 5806 5805 5805 5804 5804 5804 5804 5802 5800 5799 5796 5793 5791 5789 5787 5784 5782 5779 5777 5775 5775 5775 5775 5773 5769 5766 5763 5758 5753 5749 5744 5739
5785 5789 5793 5793 5794 5795 5798 5798 5797 5795 5796 5798 5797 5795 5796 5796 5795 5794 5793 5791 5789 5788 5785 5782 5779 5776 5774 5771 5769 5766 5763 5760 5758 5758 5761 5757 5752 5750 5744 5738 5734 5728 5722
5775 5777 5782 5784 5785 5786 5788 5789 5788 5786 5786 5787 5787 5787 5787 5787 5785 5785 5784 5782 5780 5778 5776 5773 5769 5766 5763 5761 5757 5754 5751 5747 5743 5738 5737 5740 5737 5733 5725 5720 5715 5708 5704
5763 5765 5768 5776 5776 5775 5775 5777 5777 5777 5775 5775 5776 5776 5777 5777 5775 5774 5773 5771 5769 5767 5764 5762 5759 5756 5753 5749 5746 5742 5739 5736 5733 5728 5724 5720 5715 5713 5709 5705 5701 5695 5690
Wind_Speed
10 12 15 18 24 26 26 24 21 15 12 11 7 7 8 8 7 6 5 7 8 9 9 9 8 9 8 7 8 8 9 11 13 13 13 13 12 13 14 15 15 14 14
11 11 14 17 22 27 27 25 20 18 11 10 8 8 8 7 6 6 6 7 8 9 9 8 8 9 9 9 9 8 8 10 12 13 14 14 14 12 13 14 14 14 14
12 12 15 17 20 25 27 26 20 19 12 10 8 8 8 6 5 5 7 8 8 8 7 8 9 9 10 11 11 11 12 12 13 15 15 15 15 14 13 14 14 14 13
14 13 15 17 18 22 26 27 22 18 13 9 9 8 7 6 5 5 6 8 8 7 7 8 8 9 12 13 14 15 15 14 15 16 17 18 17 16 14 14 14 14 13
16 14 14 16 18 20 23 27 24 17 14 9 8 8 7 6 4 5 5 6 7 7 6 7 7 9 11 13 16 19 17 17 19 18 20 20 19 18 16 17 17 15 13
16 15 14 15 18 21 23 27 25 17 14 10 8 9 8 5 5 4 4 4 7 6 6 6 6 8 10 15 17 18 18 19 19 19 18 18 16 15 16 18 18 16 14
17 16 15 15 18 21 23 26 25 18 14 11 9 9 9 7 5 4 4 3 3 3 5 6 7 8 12 15 15 14 14 13 12 12 13 13 13 12 12 12 12 12 11
19 17 16 17 18 20 23 24 26 21 14 11 10 9 10 9 7 6 4 2 1 0 1 7 9 10 12 12 10 10 9 8 8 7 7 7 7 8 7 7 8 9 10
21 18 18 18 18 19 21 23 24 24 15 12 11 10 11 10 10 8 8 6 5 4 2 6 9 12 12 9 6 4 4 4 3 4 3 3 5 6 7 8 9 9 10
22 20 19 19 18 19 21 22 24 23 20 12 11 11 13 12 12 12 12 10 9 9 7 7 9 12 11 12 9 7 6 4 2 4 4 6 8 9 10 10 11 11 11
23 22 20 20 20 19 20 21 23 21 20 15 11 11 13 14 13 14 16 15 13 12 12 12 12 14 13 13 13 11 10 9 8 7 10 12 13 13 14 14 14 14 14
23 24 21 21 21 20 20 20 21 20 20 17 13 11 12 15 14 14 17 18 17 16 16 16 16 16 16 15 15 14 13 13 12 13 15 17 18 19 17 18 18 17 16
23 25 22 23 22 21 22 20 19 19 19 19 14 12 13 16 17 16 19 19 20 20 19 20 21 20 20 19 18 18 19 17 19 21 22 22 22 22 22 21 21 20 21
24 24 22 22 24 24 23 21 19 17 16 19 18 14 14 16 18 19 20 21 22 23 22 23 23 22 22 22 23 23 23 23 23 24 25 25 26 26 26 27 26 26 27
25 25 24 24 24 24 23 22 21 19 16 16 19 17 16 16 18 20 21 23 24 24 25 24 24 23 23 24 25 26 26 27 28 27 27 28 29 29 30 30 30 30 31
31 27 27 27 26 23 23 23 23 22 19 17 18 19 18 16 17 21 22 24 25 26 26 27 28 28 28 29 29 29 29 31 31 31 32 33 32 32 33 33 34 36 37
32 30 26 28 27 24 25 23 24 24 22 19 19 20 19 20 19 20 23 25 27 27 27 29 31 32 33 33 33 34 33 33 34 35 36 37 36 35 35 37 38 39 41
36 29 30 30 29 26 27 24 25 26 24 22 22 22 23 22 22 21 24 27 29 29 30 32 33 35 37 37 37 38 38 36 37 39 41 41 41 40 40 42 44 46 47
39 39 32 34 32 30 28 30 27 27 28 23 22 24 25 24 20 21 23 27 31 33 33 34 34 36 38 40 42 43 41 42 42 42 43 43 42 42 44 46 48 47 48
43 40 37 36 34 33 32 33 30 29 30 28 24 24 25 27 24 22 22 22 27 33 36 38 38 39 40 40 41 42 44 45 45 46 45 44 44 46 48 49 50 52 54
45 41 40 39 36 35 33 33 33 33 33 31 30 27 27 29 29 28 27 28 26 28 34 39 41 41 43 44 44 45 45 47 47 47 48 48 49 50 52 54 55 57 57
45 43 42 40 39 36 35 35 37 35 35 33 32 31 32 32 32 31 32 32 30 29 29 32 36 41 45 47 48 49 47 47 49 50 50 50 52 53 55 57 58 58 57
45 44 44 39 41 37 36 36 39 39 36 35 35 36 35 35 34 34 34 36 35 35 34 32 35 37 41 45 49 52 53 53 50 50 52 54 55 55 57 59 60 61 64
42 44 43 43 40 39 37 38 38 41 39 36 37 39 39 37 36 36 37 36 38 39 37 37 39 40 41 43 46 50 53 56 55 57 54 55 55 56 60 61 62 66 64
51 47 41 42 40 38 37 35 38 42 43 42 41 41 40 41 40 39 39 38 40 41 41 41 41 43 44 44 45 47 49 52 54 58 58 53 53 54 59 63 60 61 60
43 43 56 48 38 36 33 37 41 43 46 46 44 45 43 43 44 41 42 42 43 43 43 43 44 44 43 43 45 48 50 50 50 52 53 53 55 53 54 55 53 58 59
Wind_Direction
354 4 358 5 11 9 4 4 357 355 3 12 12 17 10 17 25 32 23 21 30 42 48 48 50 60 62 82 84 78 75 78 77 77 79 77 82 81 77 73 69 66 65
344 354 351 359 5 8 360 360 360 354 357 5 4 7 3 10 33 28 30 32 41 50 61 66 57 54 60 73 78 81 81 80 78 75 71 72 74 81 82 79 76 71 70
319 339 346 355 356 3 3 357 359 351 350 354 351 352 353 358 18 28 37 48 57 59 62 62 65 63 70 75 78 77 78 79 77 74 72 72 76 77 84 83 78 71 65
314 332 342 344 350 352 1 357 354 351 341 342 341 339 342 346 352 15 41 60 62 63 61 67 71 70 70 82 83 84 85 90 85 81 77 73 72 71 68 69 68 65 62
311 320 332 336 343 344 347 355 352 348 336 332 332 327 328 337 334 347 30 59 68 60 67 68 76 77 85 94 99 98 93 99 101 95 94 91 86 80 80 78 73 70 62
306 311 321 330 334 337 341 347 350 343 336 324 317 314 311 321 320 325 1 29 57 67 79 93 94 88 111 115 109 96 96 101 102 103 92 92 93 74 70 67 66 60 55
302 307 316 325 327 330 338 345 346 343 334 318 308 301 299 299 296 300 317 356 58 57 105 124 132 131 139 129 125 110 102 102 93 87 81 68 74 69 56 51 50 40 36
299 305 311 314 318 324 329 342 347 347 332 319 304 293 290 285 278 275 274 278 264 154 96 147 152 159 152 141 128 121 107 96 92 79 65 62 57 50 28 27 31 19 9
296 303 305 305 310 316 324 335 342 352 336 322 307 289 283 280 273 266 265 254 239 227 218 169 169 167 170 161 155 150 135 117 59 44 49 34 13 3 355 350 347 341 338
291 298 300 300 304 312 316 328 332 349 346 326 314 291 279 279 276 269 257 247 238 227 227 212 187 191 192 195 196 212 208 225 232 293 302 319 322 318 317 315 311 312 308
283 286 292 296 300 306 312 323 329 339 351 334 319 298 277 280 277 272 267 255 244 236 231 230 223 216 222 221 226 240 241 242 257 273 297 296 294 294 294 294 294 291 292
272 280 286 292 296 301 309 315 321 333 345 342 322 304 277 274 278 273 270 265 252 244 234 230 229 237 242 244 247 248 261 275 281 287 284 286 285 285 282 285 283 283 293
270 276 285 290 296 298 300 307 313 324 340 340 329 307 284 268 272 275 271 266 258 248 242 240 238 242 250 253 257 264 272 273 282 284 282 281 281 282 282 281 281 282 290
265 273 279 284 290 291 290 297 307 307 327 333 336 318 294 274 267 270 272 265 260 254 249 248 247 245 247 254 260 263 266 268 272 276 279 283 285 286 288 287 285 286 292
265 267 271 272 275 281 284 290 297 304 311 322 324 328 315 288 275 272 269 263 262 259 254 253 255 257 257 256 257 261 265 269 272 274 276 278 281 284 284 285 286 287 289
262 260 263 267 272 276 280 285 291 296 303 310 312 317 322 313 288 279 273 267 262 262 260 261 259 258 258 260 262 260 262 266 270 274 279 279 278 277 280 281 284 288 292
256 260 257 261 268 273 277 280 285 290 296 301 300 307 310 313 303 281 275 268 264 263 263 263 264 264 262 261 261 261 263 267 272 274 274 273 270 271 274 280 285 286 288
273 267 267 267 267 268 273 275 277 281 286 291 295 303 305 308 309 294 280 274 267 264 265 268 269 268 268 267 264 265 268 269 271 273 275 276 279 282 286 288 289 290 291
266 266 260 265 267 269 271 273 273 276 282 285 290 295 299 303 304 303 295 285 280 276 271 269 267 267 267 266 266 267 269 272 273 273 274 276 280 282 284 288 288 287 286
265 267 267 265 266 269 270 273 274 274 277 283 285 288 291 293 293 295 296 298 288 280 277 276 275 273 272 271 269 269 271 272 273 273 274 276 279 282 284 287 290 291 292
263 267 269 269 268 269 271 272 273 274 275 280 285 288 285 286 288 291 291 294 299 294 286 282 279 277 276 277 275 273 274 277 277 277 278 280 282 286 291 291 292 293 294
270 270 272 272 271 269 268 268 270 271 275 278 283 285 283 283 286 289 291 293 295 301 297 291 287 284 279 277 279 278 276 277 278 280 282 284 287 288 289 288 289 289 288
261 261 265 271 272 269 267 268 269 271 272 275 278 279 281 283 284 286 289 292 291 294 300 297 291 288 284 280 278 279 279 279 277 278 281 283 284 285 285 285 289 290 286
273 272 269 272 274 272 270 267 267 269 271 272 272 276 278 280 280 283 285 287 288 291 294 299 300 295 292 288 285 282 280 280 280 276 276 277 280 281 282 282 284 285 286
270 269 269 267 271 274 271 268 267 268 270 269 270 271 276 278 278 280 283 285 283 286 290 296 298 296 296 294 293 291 290 290 290 289 290 291 292 292 292 290 289 288 291
265 269 267 264 270 271 267 262 260 262 265 267 269 271 273 275 279 281 284 282 283 286 289 293 297 299 296 297 297 297 295 293 292 292 294 296 295 295 294 293 289 288 291